Regional Weather Roundup
Issued by NWS Cleveland, OH

Home | Current Version | Previous Version | Graphics & Text | Print | Product List | Glossary On
Versions: 1 2 3 4 5 6 7 8 9 10 11 12 13 14 15 16 17 18 19 20 21 22 23 24 25 26 27 28 29 30 31 32 33 34 35 36 37 38 39 40 41 42 43 44 45 46 47 48 49 50
000
ASUS41 KCLE 300900
RWRCLE
OHIO REGIONAL WEATHER ROUNDUP
NATIONAL WEATHER SERVICE WILMINGTON, OH
500 AM EDT TUE SEP 30 2014

NOTE: "FAIR" INDICATES FEW OR NO CLOUDS BELOW 12,000 FEET WITH NO
SIGNIFICANT WEATHER AND/OR OBSTRUCTIONS TO VISIBILITY.

OHZ001>008-015>018-024>027-034-035-043-044-301000-
   NORTHWEST OHIO

CITY           SKY/WX    TMP DP  RH WIND       PRES   REMARKS
DEFIANCE       CLOUDY    62  58  86 NW3       29.91S FOG
FINDLAY        MOCLDY    57  52  83 W5        29.88S
TOLEDO EXPRESS LGT RAIN  58  57  97 NW15      29.90R
TOLEDO METCALF CLOUDY    62  59  90 NW7       29.89S
LIMA           MOCLDY    59  53  80 S3        29.90S
$$

OHZ009>014-019>023-028>033-038-089-301000-
   NORTHEAST OHIO

CITY           SKY/WX    TMP DP  RH WIND       PRES   REMARKS
CLE-HOPKINS    MOCLDY    54  51  90 SW5       29.88S
CLE-LAKEFRONT  PTCLDY    61  54  77 SE12      29.85S
CUY CO. ARPT   NOT AVBL
LORAIN-ELYRIA  PTCLDY    58  53  84 S3        29.87F
ASHTABULA      PTCLDY    54  52  93 S5        29.88S FOG
AKRON-CANTON   CLEAR     57  52  83 CALM      29.89S
WOOSTER        FOG       47  45  93 CALM      29.89F VSB 1/4
MANSFIELD      CLEAR     56  53  90 S5        29.89S
YOUNGSTOWN     CLEAR     51  50  96 S5        29.88S
$$

OHZ042-051>053-060>062-070>072-077>081-301000-
  SOUTHWEST OHIO

CITY           SKY/WX    TMP DP  RH WIND       PRES   REMARKS
CINC-COVINGTON CLEAR     56  51  84 CALM      29.92F
CINC-LUNKEN    CLEAR     50  50 100 CALM      29.93F FOG
HAMILTON       CLEAR     50  49  96 CALM      29.93S
DAYTON         NOT AVBL
WRIGHT-PAT AFB PTCLDY    53  50  89 CALM      29.91S
DAYTON GENERAL CLEAR     58  50  75 CALM      29.91F
WILMINGTON     CLEAR     50  47  89 S3        29.92F
$$

OHZ036-037-039>041-045>050-054>059-063>069-073>076-082>088-301000-
  CENTRAL AND SOUTHEAST OHIO

CITY           SKY/WX    TMP DP  RH WIND       PRES   REMARKS
COLUMBUS       CLEAR     53  50  89 CALM      29.90S
OSU AIRPORT    CLEAR     54  49  83 CALM      29.90S
BOLTON FIELD   NOT AVBL
RICKENBACK AFB NOT AVBL
NEWARK         CLEAR     46  44  93 CALM      29.90S FOG
MARION         PTCLDY    52  47  83 S3        29.89F
LANCASTER      CLEAR     47  44  90 CALM      29.90F
ZANESVILLE     CLEAR     50  47  89 CALM      29.90R
NEW PHILLY     FOG       51  51 100 CALM      29.90R VSB 1/4
$$


USA.gov is the U.S. government's official web portal to all federal, state and local government web resources and services.